Location: *
(51.0333°S, 178.4667°E)
Time: 21:52:42
(UTC+00:00)

USA 267 - Pass Details

Date: 15 November 2019
Orbit: 1101 x 1106 km, 123.0° (Epoch: 12 November)

Event Time Altitude Azimuth Distance (km) Brightness Sun altitude
Rises 10:45:35 0° 97° (E) 3,949 6.1 -19.0°
Reaches altitude 10° 10:48:07 10° 101° (E) 2,992 5.5 -19.2°
Maximum altitude 10:54:31 55° 175° (S) 1,335 4.0 -19.4°
Drops below altitude 10° 11:00:56 10° 250° (WSW) 2,995 6.0 -19.6°
Sets 11:03:28 0° 254° (WSW) 3,953 6.6 -19.7°
